EJA157 KUCY-KMEM

Flight info

Callsign EJA157
Flight time 0h 22m
Altitude 14000
Route SPKER BLUZZ5
Aircraft C25C/M-G/C

Departure

Time 2026-04-26 03:08
Airport Everett-Stewart Regional Airport (KUCY)

Arrival

Time 2026-04-26 03:31
Airport Memphis International Airport (KMEM)
Time Latitude Longitude Altitude Speed Heading
2026-04-26 02:58 36.38333 -88.98321 322 ft 0 kts 34°
2026-04-26 03:03 36.38332 -88.98322 322 ft 2 kts 34°
2026-04-26 03:03 36.38323 -88.98329 314 ft 0 kts 34°
2026-04-26 03:06 36.38326 -88.98328 322 ft 3 kts 12°
2026-04-26 03:06 36.38387 -88.98377 321 ft 14 kts
2026-04-26 03:06 36.38539 -88.98354 318 ft 29 kts
2026-04-26 03:06 36.38740 -88.98326 314 ft 29 kts
2026-04-26 03:07 36.38847 -88.98378 311 ft 11 kts 278°
2026-04-26 03:07 36.38828 -88.98455 311 ft 10 kts 183°
2026-04-26 03:07 36.38763 -88.98462 312 ft 9 kts 186°
2026-04-26 03:07 36.38708 -88.98469 313 ft 7 kts 186°
2026-04-26 03:08 36.38652 -88.98476 315 ft 14 kts 186°
2026-04-26 03:08 36.38253 -88.98529 325 ft 112 kts 186°
2026-04-26 03:08 36.37232 -88.98666 893 ft 170 kts 185°
2026-04-26 03:08 36.35915 -88.98832 1784 ft 209 kts 182°
2026-04-26 03:09 36.34357 -88.99032 2701 ft 240 kts 184°
2026-04-26 03:09 36.32613 -88.99260 3637 ft 261 kts 184°
2026-04-26 03:09 36.30823 -88.99507 4566 ft 248 kts 184°
2026-04-26 03:09 36.29162 -88.99722 5479 ft 238 kts 185°
2026-04-26 03:10 36.27475 -88.99942 6387 ft 254 kts 185°
2026-04-26 03:10 36.25652 -89.00179 7292 ft 269 kts 186°
2026-04-26 03:10 36.23753 -89.00429 8211 ft 281 kts 186°
2026-04-26 03:10 36.21784 -89.00689 9152 ft 285 kts 187°
2026-04-26 03:11 36.19809 -89.00944 10074 ft 293 kts 187°
2026-04-26 03:11 36.17692 -89.01227 10964 ft 318 kts 187°
2026-04-26 03:11 36.15395 -89.01523 11889 ft 340 kts 188°
2026-04-26 03:11 36.12972 -89.01844 12840 ft 358 kts 188°
2026-04-26 03:12 36.10483 -89.02163 13806 ft 367 kts 188°
2026-04-26 03:12 36.07918 -89.02499 13967 ft 369 kts 188°
2026-04-26 03:12 36.05369 -89.02828 13979 ft 368 kts 188°
2026-04-26 03:12 36.02806 -89.03165 13980 ft 370 kts 188°
2026-04-26 03:13 36.00266 -89.03496 13986 ft 371 kts 189°
2026-04-26 03:13 35.97677 -89.03831 13986 ft 372 kts 188°
2026-04-26 03:13 35.95124 -89.04164 13990 ft 373 kts 189°
2026-04-26 03:13 35.92523 -89.04501 13986 ft 374 kts 188°
2026-04-26 03:14 35.89954 -89.04837 13987 ft 374 kts 189°
2026-04-26 03:14 35.87360 -89.05169 13987 ft 370 kts 189°
2026-04-26 03:14 35.84822 -89.05501 13990 ft 367 kts 189°
2026-04-26 03:14 35.82271 -89.05829 13992 ft 365 kts 189°
2026-04-26 03:15 35.79771 -89.06156 13995 ft 363 kts 189°
2026-04-26 03:15 35.78107 -89.06368 13994 ft 362 kts 189°
2026-04-26 03:15 35.75595 -89.06704 13996 ft 360 kts 190°
2026-04-26 03:15 35.72545 -89.08080 13986 ft 351 kts 215°
2026-04-26 03:16 35.71284 -89.09316 13989 ft 346 kts 228°
2026-04-26 03:16 35.69090 -89.12149 13986 ft 337 kts 229°
2026-04-26 03:16 35.68013 -89.13536 13668 ft 339 kts 230°
2026-04-26 03:16 35.66387 -89.15663 13263 ft 338 kts 229°
2026-04-26 03:17 35.64781 -89.17743 12853 ft 337 kts 229°
2026-04-26 03:17 35.63147 -89.19846 12507 ft 335 kts 229°
2026-04-26 03:17 35.61562 -89.21889 12182 ft 333 kts 229°
2026-04-26 03:17 35.59974 -89.23973 11849 ft 331 kts 232°
2026-04-26 03:18 35.58560 -89.26167 11528 ft 323 kts 233°
2026-04-26 03:18 35.57128 -89.28258 11221 ft 312 kts 232°
2026-04-26 03:18 35.55796 -89.30214 10807 ft 289 kts 233°
2026-04-26 03:18 35.54548 -89.32078 10385 ft 276 kts 234°
2026-04-26 03:19 35.53353 -89.33884 10057 ft 272 kts 233°
2026-04-26 03:19 35.52163 -89.35656 9977 ft 264 kts 233°
2026-04-26 03:19 35.51009 -89.37375 9968 ft 262 kts 233°
2026-04-26 03:19 35.49844 -89.39114 9966 ft 262 kts 233°
2026-04-26 03:20 35.48650 -89.40787 9961 ft 263 kts 230°
2026-04-26 03:20 35.47390 -89.42444 9964 ft 264 kts 230°
2026-04-26 03:20 35.46133 -89.44074 9967 ft 265 kts 230°
2026-04-26 03:20 35.44860 -89.45727 9967 ft 267 kts 230°
2026-04-26 03:21 35.43591 -89.47374 9971 ft 267 kts 230°
2026-04-26 03:21 35.42313 -89.49028 9971 ft 268 kts 230°
2026-04-26 03:21 35.41029 -89.50693 9973 ft 268 kts 230°
2026-04-26 03:21 35.39804 -89.52415 9968 ft 266 kts 236°
2026-04-26 03:22 35.38710 -89.54234 9796 ft 268 kts 237°
2026-04-26 03:22 35.37624 -89.56102 9507 ft 269 kts 237°
2026-04-26 03:22 35.36548 -89.57970 9171 ft 267 kts 238°
2026-04-26 03:22 35.35483 -89.59846 8840 ft 265 kts 237°
2026-04-26 03:23 35.34442 -89.61696 8467 ft 266 kts 238°
2026-04-26 03:23 35.33407 -89.63560 8094 ft 267 kts 237°
2026-04-26 03:23 35.32368 -89.65460 7723 ft 267 kts 238°
2026-04-26 03:23 35.31346 -89.67345 7351 ft 267 kts 238°
2026-04-26 03:24 35.30324 -89.69261 6990 ft 266 kts 237°
2026-04-26 03:24 35.29330 -89.71147 6638 ft 261 kts 238°
2026-04-26 03:24 35.28366 -89.73002 6281 ft 258 kts 238°
2026-04-26 03:24 35.27410 -89.74869 5899 ft 256 kts 238°
2026-04-26 03:25 35.26477 -89.76690 5529 ft 255 kts 238°
2026-04-26 03:25 35.25539 -89.78528 5144 ft 254 kts 238°
2026-04-26 03:25 35.24595 -89.80377 4689 ft 257 kts 238°
2026-04-26 03:25 35.23639 -89.82245 4212 ft 259 kts 238°
2026-04-26 03:26 35.22689 -89.84109 3747 ft 260 kts 238°
2026-04-26 03:26 35.21736 -89.85969 3296 ft 260 kts 238°
2026-04-26 03:26 35.20771 -89.87825 3037 ft 252 kts 234°
2026-04-26 03:26 35.19674 -89.89445 2902 ft 241 kts 229°
2026-04-26 03:27 35.18591 -89.90959 2689 ft 237 kts 228°
2026-04-26 03:27 35.17496 -89.92462 2462 ft 234 kts 228°
2026-04-26 03:27 35.16427 -89.93926 2236 ft 231 kts 228°
2026-04-26 03:27 35.15339 -89.95358 2076 ft 225 kts 220°
2026-04-26 03:28 35.14076 -89.96335 2035 ft 204 kts 209°
2026-04-26 03:28 35.12928 -89.97116 1982 ft 177 kts 208°
2026-04-26 03:28 35.11801 -89.97419 1657 ft 157 kts 176°
2026-04-26 03:28 35.10780 -89.97428 1434 ft 140 kts 180°
2026-04-26 03:29 35.09879 -89.97399 1270 ft 129 kts 178°
2026-04-26 03:29 35.08996 -89.97385 1110 ft 126 kts 178°
2026-04-26 03:29 35.08120 -89.97366 950 ft 125 kts 179°
2026-04-26 03:29 35.07238 -89.97344 786 ft 128 kts 179°
2026-04-26 03:30 35.06347 -89.97326 615 ft 130 kts 178°
2026-04-26 03:30 35.05468 -89.97310 436 ft 121 kts 179°
2026-04-26 03:30 35.04650 -89.97294 328 ft 112 kts 180°
2026-04-26 03:30 35.04011 -89.97287 324 ft 66 kts 179°
2026-04-26 03:31 35.03802 -89.97332 324 ft 16 kts 271°
2026-04-26 03:31 35.03802 -89.97375 323 ft 7 kts 270°
2026-04-26 03:31 35.03801 -89.97523 319 ft 20 kts 269°
2026-04-26 03:31 35.03800 -89.97684 320 ft 16 kts 270°
2026-04-26 03:32 35.03878 -89.97735 322 ft 18 kts 358°
2026-04-26 03:32 35.04029 -89.97739 323 ft 23 kts 359°
2026-04-26 03:32 35.04185 -89.97742 323 ft 21 kts 359°
2026-04-26 03:32 35.04331 -89.97745 323 ft 21 kts 359°
2026-04-26 03:33 35.04479 -89.97748 323 ft 21 kts 359°
2026-04-26 03:33 35.04624 -89.97751 322 ft 21 kts 359°
2026-04-26 03:33 35.04773 -89.97755 321 ft 21 kts 359°
2026-04-26 03:33 35.04920 -89.97758 321 ft 21 kts 359°
2026-04-26 03:34 35.05067 -89.97761 321 ft 21 kts 359°
2026-04-26 03:34 35.05210 -89.97763 322 ft 20 kts 359°
2026-04-26 03:34 35.05348 -89.97775 321 ft 20 kts 350°
2026-04-26 03:34 35.05475 -89.97808 323 ft 18 kts 292°
2026-04-26 03:35 35.05479 -89.97955 324 ft 17 kts 257°
2026-04-26 03:35 35.05455 -89.98101 324 ft 17 kts 261°
2026-04-26 03:35 35.05436 -89.98229 324 ft 7 kts 253°
2026-04-26 03:35 35.05433 -89.98244 323 ft 4 kts 258°
2026-04-26 03:36 35.05432 -89.98248 323 ft 0 kts 263°